sat.trackr.live / text

‹ back to catalog

STARLINK-36574

NORAD 67535 · 2026-014D

PAYLOAD ACTIVE UNKNOWN

§ Identity

Operator
Country
US
Launch date
2026-01-22
Launch site
AFWTR
Launch vehicle
Mass (kg)
RCS (m²)

Purposes: comms

External: N2YO · Heavens-Above · Gunter

§ Orbital elements

Epoch: 2026-05-25T03:42:53.697888Z

Period
93.91 min
Inclination
97.2866°
Eccentricity
0.0001592
Mean motion
15.33448033 rev/d
Perigee alt
464.4 km
Apogee alt
466.6 km
Semi-major
6,843.7 km
B*
1.6251e-4
RAAN
32.2266°
Arg perigee
100.0708°
Mean anomaly
260.0714°
Rev number
2,050

§ Raw data

STARLINK-365741 67535U 26014D   26145.15478817  .00005175  00000+0  16251-3 0  99932 67535  97.2866  32.2266 0001592 100.0708 260.0714 15.33448033 20501

JSON: /api/v1/satellites/67535 · /tle

For live sub-satellite position, see the globe view (requires WebGL).

§ Visibility from observer

Set your observer location to see the next 7 days of passes ≥ 10°. The values pass through the URL so the page stays shareable.

No JS? Fill the form by hand. The geolocation button needs JavaScript.